Location: Unspecified
(0.0000°N, 0.0000°E)
Time: 06:28:30
(UTC+00:00)

Tiros 1 - Visible Passes

Search period start: 12 December 2017 00:00
Search period end: 22 December 2017 00:00
Orbit: 630 x 665 km, 48.4° (Epoch: 11 December)

Date Brightness Start Highest point End Pass type
(mag) Time Alt. Az. Time Alt. Az. Time Alt. Az.
12 Dec 8.2 03:42:17 42° E 03:42:17 42° E 03:45:46 10° SE visible
12 Dec 9.2 05:21:20 10° WSW 05:23:17 12° SW 05:25:14 10° SSW visible
13 Dec 7.7 04:07:49 43° SSW 04:07:49 43° SSW 04:11:48 10° SSE visible
14 Dec 10.2 02:55:35 12° ESE 02:55:35 12° ESE 02:55:54 10° SE visible
14 Dec 9.1 04:33:17 14° SW 04:33:28 14° SW 04:35:56 10° SSW visible
15 Dec 9.6 03:20:59 17° SSE 03:20:59 17° SSE 03:22:05 10° SSE visible
16 Dec 9.8 03:46:18 11° SSW 03:46:18 11° SSW 03:46:32 10° SSW visible
